Hourly Data Report for October 04, 2013

All times are specified in Local Standard Time (LST). Add 1 hour to adjust for Daylight Saving Time where and when it is observed.

IQALUIT CLIMATE
NUNAVUT

63°44'50.000" N
68°32'40.000" W
33.50 m
2402592
71321
XFB

Download Data

Hourly Data (October 2013)
Hourly Data Report for October 4, 2013
Temp Definition
°C
Dew Point Temp Definition
°C
Rel Hum Definition
%
Wind Dir Definition
10's deg

Wind Spd Definition
km/h
Visibility Definition
km
Stn Press Definition
kPa
Hmdx Definition


Wind Chill Definition


Weather Definition


TIME
00:00 1.8 1.0 94 12 13   101.18     LegendNANA
01:00 1.7 1.0 95 12 15   101.21     LegendNANA
02:00 1.7 0.9 94 13 17   101.24     LegendNANA
03:00 1.6 0.9 95 13 13   101.25     LegendNANA
04:00 1.8 0.8 93 13 19   101.27     LegendNANA
05:00 1.7 1.1 96 14 20   101.30     LegendNANA
06:00 1.7 0.9 94 13 22   101.35     LegendNANA
07:00 1.7 0.9 94 13 20   101.35     LegendNANA
08:00 1.7 0.9 94 13 19   101.37     LegendNANA
09:00 1.8 1.0 94 13 20   101.36     LegendNANA
10:00 2.3 1.4 94 14 19   101.32     LegendNANA
11:00 2.3 1.5 94 15 17   101.32     LegendNANA
12:00 1.9 1.4 96 16 13   101.33     LegendNANA
13:00 2.0 1.6 97 14 15   101.33     LegendNANA
14:00 2.1 1.8 98 15 7   101.33     LegendNANA
15:00 2.1 1.5 96 16 4   101.35     LegendNANA
16:00 1.8 1.6 99 12 4   101.34     LegendNANA
17:00 1.7 1.4 98 17 4   101.34     LegendNANA
18:00 1.4 1.4 100 32 6   101.37     LegendNANA
19:00 0.8 0.5 98 32 13   101.39     LegendNANA
20:00 0.4 0.3 99 33 19   101.40     LegendNANA
21:00 -0.1 -0.1 100 33 15   101.40   -5 LegendNANA
22:00 0.2 0.2 100 32 13   101.37     LegendNANA
23:00 0.4 0.4 100 32 9   101.37     LegendNANA

Notes on Data Quality.

Legend

  • E = Estimated
  • M = Missing
  • NA = Not Available
  • ‡ = Partner data that is not subject to review by the National Climate Archives
Date modified: